owner,sensor,date,latitude,longitude,air_temperature,qcFlag 
COMPS,ioos:station:USF.COMPS:ARP:1,2016-06-01T00:00:00Z,28.4330,-82.6670,28.0,1111122 
COMPS,ioos:station:USF.COMPS:ARP:1,2016-06-01T00:06:00Z,28.4330,-82.6670,28.0,1111122 
COMPS,ioos:station:USF.COMPS:ARP:1,2016-06-01T00:12:00Z,28.4330,-82.6670,27.95,1111122 
COMPS,ioos:station:USF.COMPS:ARP:1,2016-06-01T00:18:00Z,28.4330,-82.6670,27.93,1111122 
COMPS,ioos:station:USF.COMPS:ARP:1,2016-06-01T00:24:00Z,28.4330,-82.6670,27.89,1111122 
COMPS,ioos:station:USF.COMPS:ARP:1,2016-06-01T00:30:00Z,28.4330,-82.6670,27.82,1111122 
COMPS,ioos:station:USF.COMPS:ARP:1,2016-06-01T00:36:00Z,28.4330,-82.6670,27.88,1111122 
COMPS,ioos:station:USF.COMPS:ARP:1,2016-06-01T00:42:00Z,28.4330,-82.6670,27.88,1111122 
COMPS,ioos:station:USF.COMPS:ARP:1,2016-06-01T00:48:00Z,28.4330,-82.6670,27.87,1111122 
COMPS,ioos:station:USF.COMPS:ARP:1,2016-06-01T00:54:00Z,28.4330,-82.6670,28.0,1111122 
COMPS,ioos:station:USF.COMPS:ARP:1,2016-06-01T01:00:00Z,28.4330,-82.6670,27.72,1111122 
COMPS,ioos:station:USF.COMPS:ARP:1,2016-06-01T01:06:00Z,28.4330,-82.6670,27.15,1111122 
COMPS,ioos:station:USF.COMPS:ARP:1,2016-06-01T01:12:00Z,28.4330,-82.6670,27.12,1111122 
COMPS,ioos:station:USF.COMPS:ARP:1,2016-06-01T01:18:00Z,28.4330,-82.6670,27.35,1111122 
COMPS,ioos:station:USF.COMPS:ARP:1,2016-06-01T01:24:00Z,28.4330,-82.6670,27.56,1111122 
COMPS,ioos:station:USF.COMPS:ARP:1,2016-06-01T01:30:00Z,28.4330,-82.6670,27.6,1111122 
COMPS,ioos:station:USF.COMPS:ARP:1,2016-06-01T01:36:00Z,28.4330,-82.6670,27.41,1111122 
COMPS,ioos:station:USF.COMPS:ARP:1,2016-06-01T01:42:00Z,28.4330,-82.6670,26.53,1111122 
COMPS,ioos:station:USF.COMPS:ARP:1,2016-06-01T01:48:00Z,28.4330,-82.6670,26.26,1111122 
COMPS,ioos:station:USF.COMPS:ARP:1,2016-06-01T01:54:00Z,28.4330,-82.6670,26.19,1111122 
COMPS,ioos:station:USF.COMPS:ARP:1,2016-06-01T02:00:00Z,28.4330,-82.6670,25.62,1111122 
COMPS,ioos:station:USF.COMPS:ARP:1,2016-06-01T02:06:00Z,28.4330,-82.6670,25.49,1111122 
COMPS,ioos:station:USF.COMPS:ARP:1,2016-06-01T02:12:00Z,28.4330,-82.6670,25.34,1111122 
COMPS,ioos:station:USF.COMPS:ARP:1,2016-06-01T02:18:00Z,28.4330,-82.6670,25.39,1111122 
COMPS,ioos:station:USF.COMPS:ARP:1,2016-06-01T02:24:00Z,28.4330,-82.6670,25.49,1111122 
COMPS,ioos:station:USF.COMPS:ARP:1,2016-06-01T02:30:00Z,28.4330,-82.6670,25.07,1111122 
COMPS,ioos:station:USF.COMPS:ARP:1,2016-06-01T02:36:00Z,28.4330,-82.6670,24.95,1111122 
COMPS,ioos:station:USF.COMPS:ARP:1,2016-06-01T02:42:00Z,28.4330,-82.6670,24.82,1111122 
COMPS,ioos:station:USF.COMPS:ARP:1,2016-06-01T02:48:00Z,28.4330,-82.6670,24.75,1111122 
COMPS,ioos:station:USF.COMPS:ARP:1,2016-06-01T02:54:00Z,28.4330,-82.6670,24.66,1111122 
COMPS,ioos:station:USF.COMPS:ARP:1,2016-06-01T03:00:00Z,28.4330,-82.6670,24.63,1111122 
COMPS,ioos:station:USF.COMPS:ARP:1,2016-06-01T03:06:00Z,28.4330,-82.6670,24.64,1111122 
COMPS,ioos:station:USF.COMPS:ARP:1,2016-06-01T03:12:00Z,28.4330,-82.6670,24.63,1111122 
COMPS,ioos:station:USF.COMPS:ARP:1,2016-06-01T03:18:00Z,28.4330,-82.6670,24.73,1111122 
COMPS,ioos:station:USF.COMPS:ARP:1,2016-06-01T03:24:00Z,28.4330,-82.6670,24.63,1111122 
COMPS,ioos:station:USF.COMPS:ARP:1,2016-06-01T03:30:00Z,28.4330,-82.6670,24.63,1111122 
COMPS,ioos:station:USF.COMPS:ARP:1,2016-06-01T03:36:00Z,28.4330,-82.6670,24.64,1111122 
COMPS,ioos:station:USF.COMPS:ARP:1,2016-06-01T03:42:00Z,28.4330,-82.6670,24.58,1111122 
COMPS,ioos:station:USF.COMPS:ARP:1,2016-06-01T03:48:00Z,28.4330,-82.6670,24.35,1111122 
COMPS,ioos:station:USF.COMPS:ARP:1,2016-06-01T03:54:00Z,28.4330,-82.6670,24.37,1111122 
COMPS,ioos:station:USF.COMPS:ARP:1,2016-06-01T04:00:00Z,28.4330,-82.6670,24.18,1111122 
COMPS,ioos:station:USF.COMPS:ARP:1,2016-06-01T04:06:00Z,28.4330,-82.6670,24.11,1111122 
COMPS,ioos:station:USF.COMPS:ARP:1,2016-06-01T04:12:00Z,28.4330,-82.6670,24.08,1111122 
COMPS,ioos:station:USF.COMPS:ARP:1,2016-06-01T04:18:00Z,28.4330,-82.6670,23.97,1111122 
COMPS,ioos:station:USF.COMPS:ARP:1,2016-06-01T04:24:00Z,28.4330,-82.6670,23.86,1111122 
COMPS,ioos:station:USF.COMPS:ARP:1,2016-06-01T04:30:00Z,28.4330,-82.6670,23.95,1111122 
COMPS,ioos:station:USF.COMPS:ARP:1,2016-06-01T04:36:00Z,28.4330,-82.6670,23.9,1111122 
COMPS,ioos:station:USF.COMPS:ARP:1,2016-06-01T04:42:00Z,28.4330,-82.6670,23.83,1111122 
COMPS,ioos:station:USF.COMPS:ARP:1,2016-06-01T04:48:00Z,28.4330,-82.6670,23.79,1111122 
COMPS,ioos:station:USF.COMPS:ARP:1,2016-06-01T04:54:00Z,28.4330,-82.6670,23.91,1111122 
COMPS,ioos:station:USF.COMPS:ARP:1,2016-06-01T05:00:00Z,28.4330,-82.6670,23.75,1111122 
COMPS,ioos:station:USF.COMPS:ARP:1,2016-06-01T05:06:00Z,28.4330,-82.6670,23.69,1111122 
COMPS,ioos:station:USF.COMPS:ARP:1,2016-06-01T05:12:00Z,28.4330,-82.6670,23.36,1111122 
COMPS,ioos:station:USF.COMPS:ARP:1,2016-06-01T05:18:00Z,28.4330,-82.6670,23.23,1111122 
COMPS,ioos:station:USF.COMPS:ARP:1,2016-06-01T05:24:00Z,28.4330,-82.6670,23.28,1111122 
COMPS,ioos:station:USF.COMPS:ARP:1,2016-06-01T05:30:00Z,28.4330,-82.6670,23.29,1111122 
COMPS,ioos:station:USF.COMPS:ARP:1,2016-06-01T05:36:00Z,28.4330,-82.6670,23.28,1111122 
COMPS,ioos:station:USF.COMPS:ARP:1,2016-06-01T05:42:00Z,28.4330,-82.6670,23.29,1111122 
COMPS,ioos:station:USF.COMPS:ARP:1,2016-06-01T05:48:00Z,28.4330,-82.6670,23.47,1111122 
COMPS,ioos:station:USF.COMPS:ARP:1,2016-06-01T05:54:00Z,28.4330,-82.6670,23.72,1111122 
COMPS,ioos:station:USF.COMPS:ARP:1,2016-06-01T06:00:00Z,28.4330,-82.6670,23.46,1111122 
COMPS,ioos:station:USF.COMPS:ARP:1,2016-06-01T06:06:00Z,28.4330,-82.6670,23.44,1111122 
COMPS,ioos:station:USF.COMPS:ARP:1,2016-06-01T06:12:00Z,28.4330,-82.6670,23.46,1111122 
COMPS,ioos:station:USF.COMPS:ARP:1,2016-06-01T06:18:00Z,28.4330,-82.6670,23.23,1111122 
COMPS,ioos:station:USF.COMPS:ARP:1,2016-06-01T06:24:00Z,28.4330,-82.6670,23.02,1111122 
COMPS,ioos:station:USF.COMPS:ARP:1,2016-06-01T06:30:00Z,28.4330,-82.6670,23.09,1111122 
COMPS,ioos:station:USF.COMPS:ARP:1,2016-06-01T06:36:00Z,28.4330,-82.6670,23.24,1111122 
COMPS,ioos:station:USF.COMPS:ARP:1,2016-06-01T06:42:00Z,28.4330,-82.6670,23.45,1111122 
COMPS,ioos:station:USF.COMPS:ARP:1,2016-06-01T06:48:00Z,28.4330,-82.6670,23.48,1111122 
COMPS,ioos:station:USF.COMPS:ARP:1,2016-06-01T06:54:00Z,28.4330,-82.6670,23.69,1111122 
COMPS,ioos:station:USF.COMPS:ARP:1,2016-06-01T07:00:00Z,28.4330,-82.6670,23.56,1111122 
COMPS,ioos:station:USF.COMPS:ARP:1,2016-06-01T07:06:00Z,28.4330,-82.6670,23.32,1111122 
COMPS,ioos:station:USF.COMPS:ARP:1,2016-06-01T07:12:00Z,28.4330,-82.6670,23.16,1111122 
COMPS,ioos:station:USF.COMPS:ARP:1,2016-06-01T07:18:00Z,28.4330,-82.6670,23.24,1111122 
COMPS,ioos:station:USF.COMPS:ARP:1,2016-06-01T07:24:00Z,28.4330,-82.6670,23.21,1111122 
COMPS,ioos:station:USF.COMPS:ARP:1,2016-06-01T07:30:00Z,28.4330,-82.6670,23.2,1111122 
COMPS,ioos:station:USF.COMPS:ARP:1,2016-06-01T07:36:00Z,28.4330,-82.6670,23.23,1111122 
COMPS,ioos:station:USF.COMPS:ARP:1,2016-06-01T07:42:00Z,28.4330,-82.6670,23.01,1111122 
COMPS,ioos:station:USF.COMPS:ARP:1,2016-06-01T07:48:00Z,28.4330,-82.6670,22.8,1111122 
COMPS,ioos:station:USF.COMPS:ARP:1,2016-06-01T07:54:00Z,28.4330,-82.6670,22.85,1111122 
COMPS,ioos:station:USF.COMPS:ARP:1,2016-06-01T08:00:00Z,28.4330,-82.6670,22.85,1111122 
COMPS,ioos:station:USF.COMPS:ARP:1,2016-06-01T08:06:00Z,28.4330,-82.6670,22.73,1111122 
COMPS,ioos:station:USF.COMPS:ARP:1,2016-06-01T08:12:00Z,28.4330,-82.6670,22.5,1111122 
COMPS,ioos:station:USF.COMPS:ARP:1,2016-06-01T08:18:00Z,28.4330,-82.6670,22.48,1111122 
COMPS,ioos:station:USF.COMPS:ARP:1,2016-06-01T08:24:00Z,28.4330,-82.6670,22.59,1111122 
COMPS,ioos:station:USF.COMPS:ARP:1,2016-06-01T08:30:00Z,28.4330,-82.6670,22.33,1111122 
COMPS,ioos:station:USF.COMPS:ARP:1,2016-06-01T08:36:00Z,28.4330,-82.6670,22.32,1111122 
COMPS,ioos:station:USF.COMPS:ARP:1,2016-06-01T08:42:00Z,28.4330,-82.6670,22.26,1111122 
COMPS,ioos:station:USF.COMPS:ARP:1,2016-06-01T08:48:00Z,28.4330,-82.6670,22.2,1111122 
COMPS,ioos:station:USF.COMPS:ARP:1,2016-06-01T08:54:00Z,28.4330,-82.6670,22.43,1111122 
COMPS,ioos:station:USF.COMPS:ARP:1,2016-06-01T09:00:00Z,28.4330,-82.6670,22.2,1111122 
COMPS,ioos:station:USF.COMPS:ARP:1,2016-06-01T09:06:00Z,28.4330,-82.6670,22.2,1111122 
COMPS,ioos:station:USF.COMPS:ARP:1,2016-06-01T09:12:00Z,28.4330,-82.6670,22.1,1111122 
COMPS,ioos:station:USF.COMPS:ARP:1,2016-06-01T09:18:00Z,28.4330,-82.6670,22.06,1111122 
COMPS,ioos:station:USF.COMPS:ARP:1,2016-06-01T09:24:00Z,28.4330,-82.6670,22.13,1111122 
COMPS,ioos:station:USF.COMPS:ARP:1,2016-06-01T09:30:00Z,28.4330,-82.6670,22.23,1111122 
COMPS,ioos:station:USF.COMPS:ARP:1,2016-06-01T09:36:00Z,28.4330,-82.6670,22.21,1111122 
COMPS,ioos:station:USF.COMPS:ARP:1,2016-06-01T09:42:00Z,28.4330,-82.6670,22.25,1111122 
COMPS,ioos:station:USF.COMPS:ARP:1,2016-06-01T09:48:00Z,28.4330,-82.6670,22.18,1111122 
COMPS,ioos:station:USF.COMPS:ARP:1,2016-06-01T09:54:00Z,28.4330,-82.6670,22.26,1111122 
COMPS,ioos:station:USF.COMPS:ARP:1,2016-06-01T10:00:00Z,28.4330,-82.6670,22.09,1111122 
COMPS,ioos:station:USF.COMPS:ARP:1,2016-06-01T10:06:00Z,28.4330,-82.6670,22.05,1111122 
COMPS,ioos:station:USF.COMPS:ARP:1,2016-06-01T10:12:00Z,28.4330,-82.6670,22.07,1111122 
COMPS,ioos:station:USF.COMPS:ARP:1,2016-06-01T10:18:00Z,28.4330,-82.6670,22.06,1111122 
COMPS,ioos:station:USF.COMPS:ARP:1,2016-06-01T10:24:00Z,28.4330,-82.6670,22.12,1111122 
COMPS,ioos:station:USF.COMPS:ARP:1,2016-06-01T10:30:00Z,28.4330,-82.6670,22.15,1111122 
COMPS,ioos:station:USF.COMPS:ARP:1,2016-06-01T10:36:00Z,28.4330,-82.6670,22.05,1111122 
COMPS,ioos:station:USF.COMPS:ARP:1,2016-06-01T10:42:00Z,28.4330,-82.6670,21.94,1111122 
COMPS,ioos:station:USF.COMPS:ARP:1,2016-06-01T10:48:00Z,28.4330,-82.6670,22.15,1111122 
COMPS,ioos:station:USF.COMPS:ARP:1,2016-06-01T10:54:00Z,28.4330,-82.6670,22.3,1111122 
COMPS,ioos:station:USF.COMPS:ARP:1,2016-06-01T11:00:00Z,28.4330,-82.6670,22.07,1111122 
COMPS,ioos:station:USF.COMPS:ARP:1,2016-06-01T11:06:00Z,28.4330,-82.6670,22.19,1111122 
COMPS,ioos:station:USF.COMPS:ARP:1,2016-06-01T11:12:00Z,28.4330,-82.6670,22.23,1111122 
COMPS,ioos:station:USF.COMPS:ARP:1,2016-06-01T11:18:00Z,28.4330,-82.6670,22.5,1111122 
COMPS,ioos:station:USF.COMPS:ARP:1,2016-06-01T11:24:00Z,28.4330,-82.6670,22.82,1111122 
COMPS,ioos:station:USF.COMPS:ARP:1,2016-06-01T11:30:00Z,28.4330,-82.6670,23.12,1111122 
COMPS,ioos:station:USF.COMPS:ARP:1,2016-06-01T11:36:00Z,28.4330,-82.6670,23.47,1111122 
COMPS,ioos:station:USF.COMPS:ARP:1,2016-06-01T11:42:00Z,28.4330,-82.6670,23.8,1111122 
COMPS,ioos:station:USF.COMPS:ARP:1,2016-06-01T11:48:00Z,28.4330,-82.6670,24.15,1111122 
COMPS,ioos:station:USF.COMPS:ARP:1,2016-06-01T11:54:00Z,28.4330,-82.6670,24.53,1111122 
COMPS,ioos:station:USF.COMPS:ARP:1,2016-06-01T12:00:00Z,28.4330,-82.6670,24.65,1111122 
COMPS,ioos:station:USF.COMPS:ARP:1,2016-06-01T12:06:00Z,28.4330,-82.6670,24.87,1111122 
COMPS,ioos:station:USF.COMPS:ARP:1,2016-06-01T12:12:00Z,28.4330,-82.6670,25.12,1111122 
COMPS,ioos:station:USF.COMPS:ARP:1,2016-06-01T12:18:00Z,28.4330,-82.6670,25.4,1111122 
COMPS,ioos:station:USF.COMPS:ARP:1,2016-06-01T12:24:00Z,28.4330,-82.6670,25.58,1111122 
COMPS,ioos:station:USF.COMPS:ARP:1,2016-06-01T12:30:00Z,28.4330,-82.6670,25.81,1111122 
COMPS,ioos:station:USF.COMPS:ARP:1,2016-06-01T12:36:00Z,28.4330,-82.6670,26.11,1111122 
COMPS,ioos:station:USF.COMPS:ARP:1,2016-06-01T12:42:00Z,28.4330,-82.6670,26.32,1111122 
COMPS,ioos:station:USF.COMPS:ARP:1,2016-06-01T12:48:00Z,28.4330,-82.6670,26.66,1111122 
COMPS,ioos:station:USF.COMPS:ARP:1,2016-06-01T12:54:00Z,28.4330,-82.6670,27.1,1111122 
COMPS,ioos:station:USF.COMPS:ARP:1,2016-06-01T13:00:00Z,28.4330,-82.6670,27.32,1111122 
COMPS,ioos:station:USF.COMPS:ARP:1,2016-06-01T13:06:00Z,28.4330,-82.6670,27.52,1111122 
COMPS,ioos:station:USF.COMPS:ARP:1,2016-06-01T13:12:00Z,28.4330,-82.6670,27.56,1111122 
COMPS,ioos:station:USF.COMPS:ARP:1,2016-06-01T13:18:00Z,28.4330,-82.6670,27.5,1111122 
COMPS,ioos:station:USF.COMPS:ARP:1,2016-06-01T13:24:00Z,28.4330,-82.6670,27.88,1111122 
COMPS,ioos:station:USF.COMPS:ARP:1,2016-06-01T13:30:00Z,28.4330,-82.6670,28.02,1111122 
COMPS,ioos:station:USF.COMPS:ARP:1,2016-06-01T13:36:00Z,28.4330,-82.6670,27.95,1111122 
COMPS,ioos:station:USF.COMPS:ARP:1,2016-06-01T13:42:00Z,28.4330,-82.6670,27.93,1111122 
COMPS,ioos:station:USF.COMPS:ARP:1,2016-06-01T13:48:00Z,28.4330,-82.6670,28.12,1111122 
COMPS,ioos:station:USF.COMPS:ARP:1,2016-06-01T13:54:00Z,28.4330,-82.6670,28.27,1111122 
COMPS,ioos:station:USF.COMPS:ARP:1,2016-06-01T14:00:00Z,28.4330,-82.6670,28.47,1111122 
COMPS,ioos:station:USF.COMPS:ARP:1,2016-06-01T14:06:00Z,28.4330,-82.6670,28.41,1111122 
COMPS,ioos:station:USF.COMPS:ARP:1,2016-06-01T14:12:00Z,28.4330,-82.6670,28.49,1111122 
COMPS,ioos:station:USF.COMPS:ARP:1,2016-06-01T14:18:00Z,28.4330,-82.6670,28.09,1111122 
COMPS,ioos:station:USF.COMPS:ARP:1,2016-06-01T14:24:00Z,28.4330,-82.6670,28.34,1111122 
COMPS,ioos:station:USF.COMPS:ARP:1,2016-06-01T14:30:00Z,28.4330,-82.6670,28.36,1111122 
COMPS,ioos:station:USF.COMPS:ARP:1,2016-06-01T14:36:00Z,28.4330,-82.6670,28.26,1111122 
COMPS,ioos:station:USF.COMPS:ARP:1,2016-06-01T14:42:00Z,28.4330,-82.6670,28.52,1111122 
COMPS,ioos:station:USF.COMPS:ARP:1,2016-06-01T14:48:00Z,28.4330,-82.6670,28.65,1111122 
COMPS,ioos:station:USF.COMPS:ARP:1,2016-06-01T14:54:00Z,28.4330,-82.6670,28.53,1111122 
COMPS,ioos:station:USF.COMPS:ARP:1,2016-06-01T15:00:00Z,28.4330,-82.6670,28.05,1111122 
COMPS,ioos:station:USF.COMPS:ARP:1,2016-06-01T15:06:00Z,28.4330,-82.6670,28.13,1111122 
COMPS,ioos:station:USF.COMPS:ARP:1,2016-06-01T15:12:00Z,28.4330,-82.6670,27.99,1111122 
COMPS,ioos:station:USF.COMPS:ARP:1,2016-06-01T15:18:00Z,28.4330,-82.6670,27.88,1111122 
COMPS,ioos:station:USF.COMPS:ARP:1,2016-06-01T15:24:00Z,28.4330,-82.6670,27.99,1111122 
COMPS,ioos:station:USF.COMPS:ARP:1,2016-06-01T15:30:00Z,28.4330,-82.6670,28.23,1111122 
COMPS,ioos:station:USF.COMPS:ARP:1,2016-06-01T15:36:00Z,28.4330,-82.6670,28.15,1111122 
COMPS,ioos:station:USF.COMPS:ARP:1,2016-06-01T15:42:00Z,28.4330,-82.6670,28.23,1111122 
COMPS,ioos:station:USF.COMPS:ARP:1,2016-06-01T15:48:00Z,28.4330,-82.6670,28.49,1111122 
COMPS,ioos:station:USF.COMPS:ARP:1,2016-06-01T15:54:00Z,28.4330,-82.6670,28.59,1111122 
COMPS,ioos:station:USF.COMPS:ARP:1,2016-06-01T16:00:00Z,28.4330,-82.6670,28.32,1111122 
COMPS,ioos:station:USF.COMPS:ARP:1,2016-06-01T16:06:00Z,28.4330,-82.6670,28.59,1111122 
COMPS,ioos:station:USF.COMPS:ARP:1,2016-06-01T16:12:00Z,28.4330,-82.6670,28.85,1111122 
COMPS,ioos:station:USF.COMPS:ARP:1,2016-06-01T16:18:00Z,28.4330,-82.6670,28.34,1111122 
COMPS,ioos:station:USF.COMPS:ARP:1,2016-06-01T16:24:00Z,28.4330,-82.6670,28.32,1111122 
COMPS,ioos:station:USF.COMPS:ARP:1,2016-06-01T16:30:00Z,28.4330,-82.6670,28.36,1111122 
COMPS,ioos:station:USF.COMPS:ARP:1,2016-06-01T16:36:00Z,28.4330,-82.6670,28.5,1111122 
COMPS,ioos:station:USF.COMPS:ARP:1,2016-06-01T16:42:00Z,28.4330,-82.6670,28.63,1111122 
COMPS,ioos:station:USF.COMPS:ARP:1,2016-06-01T16:48:00Z,28.4330,-82.6670,28.63,1111122 
COMPS,ioos:station:USF.COMPS:ARP:1,2016-06-01T16:54:00Z,28.4330,-82.6670,29.4,1111122 
COMPS,ioos:station:USF.COMPS:ARP:1,2016-06-01T17:00:00Z,28.4330,-82.6670,29.27,1111122 
COMPS,ioos:station:USF.COMPS:ARP:1,2016-06-01T17:06:00Z,28.4330,-82.6670,29.31,1111122 
COMPS,ioos:station:USF.COMPS:ARP:1,2016-06-01T17:12:00Z,28.4330,-82.6670,29.04,1111122 
COMPS,ioos:station:USF.COMPS:ARP:1,2016-06-01T17:18:00Z,28.4330,-82.6670,29.37,1111122 
COMPS,ioos:station:USF.COMPS:ARP:1,2016-06-01T17:24:00Z,28.4330,-82.6670,29.29,1111122 
COMPS,ioos:station:USF.COMPS:ARP:1,2016-06-01T17:30:00Z,28.4330,-82.6670,29.27,1111122 
COMPS,ioos:station:USF.COMPS:ARP:1,2016-06-01T17:36:00Z,28.4330,-82.6670,29.47,1111122 
COMPS,ioos:station:USF.COMPS:ARP:1,2016-06-01T17:42:00Z,28.4330,-82.6670,29.55,1111122 
COMPS,ioos:station:USF.COMPS:ARP:1,2016-06-01T17:48:00Z,28.4330,-82.6670,29.7,1111122 
COMPS,ioos:station:USF.COMPS:ARP:1,2016-06-01T17:54:00Z,28.4330,-82.6670,30.25,1111122 
COMPS,ioos:station:USF.COMPS:ARP:1,2016-06-01T18:00:00Z,28.4330,-82.6670,29.8,1111122 
COMPS,ioos:station:USF.COMPS:ARP:1,2016-06-01T18:06:00Z,28.4330,-82.6670,29.89,1111122 
COMPS,ioos:station:USF.COMPS:ARP:1,2016-06-01T18:12:00Z,28.4330,-82.6670,30.03,1111122 
COMPS,ioos:station:USF.COMPS:ARP:1,2016-06-01T18:18:00Z,28.4330,-82.6670,30.13,1111122 
COMPS,ioos:station:USF.COMPS:ARP:1,2016-06-01T18:24:00Z,28.4330,-82.6670,30.2,1111122 
COMPS,ioos:station:USF.COMPS:ARP:1,2016-06-01T18:30:00Z,28.4330,-82.6670,29.97,1111122 
COMPS,ioos:station:USF.COMPS:ARP:1,2016-06-01T18:36:00Z,28.4330,-82.6670,30.09,1111122 
COMPS,ioos:station:USF.COMPS:ARP:1,2016-06-01T18:42:00Z,28.4330,-82.6670,30.32,1111122 
COMPS,ioos:station:USF.COMPS:ARP:1,2016-06-01T18:48:00Z,28.4330,-82.6670,30.78,1111122 
COMPS,ioos:station:USF.COMPS:ARP:1,2016-06-01T18:54:00Z,28.4330,-82.6670,30.76,1111122 
COMPS,ioos:station:USF.COMPS:ARP:1,2016-06-01T19:00:00Z,28.4330,-82.6670,30.25,1111122 
COMPS,ioos:station:USF.COMPS:ARP:1,2016-06-01T19:06:00Z,28.4330,-82.6670,30.1,1111122 
COMPS,ioos:station:USF.COMPS:ARP:1,2016-06-01T19:12:00Z,28.4330,-82.6670,30.05,1111122 
COMPS,ioos:station:USF.COMPS:ARP:1,2016-06-01T19:18:00Z,28.4330,-82.6670,30.36,1111122 
COMPS,ioos:station:USF.COMPS:ARP:1,2016-06-01T19:24:00Z,28.4330,-82.6670,30.24,1111122 
COMPS,ioos:station:USF.COMPS:ARP:1,2016-06-01T19:30:00Z,28.4330,-82.6670,30.31,1111122 
COMPS,ioos:station:USF.COMPS:ARP:1,2016-06-01T19:36:00Z,28.4330,-82.6670,30.41,1111122 
COMPS,ioos:station:USF.COMPS:ARP:1,2016-06-01T19:42:00Z,28.4330,-82.6670,30.64,1111122 
COMPS,ioos:station:USF.COMPS:ARP:1,2016-06-01T19:48:00Z,28.4330,-82.6670,31.02,1111122 
COMPS,ioos:station:USF.COMPS:ARP:1,2016-06-01T19:54:00Z,28.4330,-82.6670,31.36,1111122 
COMPS,ioos:station:USF.COMPS:ARP:1,2016-06-01T20:00:00Z,28.4330,-82.6670,30.67,1111122 
COMPS,ioos:station:USF.COMPS:ARP:1,2016-06-01T20:06:00Z,28.4330,-82.6670,30.95,1111122 
COMPS,ioos:station:USF.COMPS:ARP:1,2016-06-01T20:12:00Z,28.4330,-82.6670,31.09,1111122 
COMPS,ioos:station:USF.COMPS:ARP:1,2016-06-01T20:18:00Z,28.4330,-82.6670,30.78,1111122 
COMPS,ioos:station:USF.COMPS:ARP:1,2016-06-01T20:24:00Z,28.4330,-82.6670,30.71,1111122 
COMPS,ioos:station:USF.COMPS:ARP:1,2016-06-01T20:30:00Z,28.4330,-82.6670,30.42,1111122 
COMPS,ioos:station:USF.COMPS:ARP:1,2016-06-01T20:36:00Z,28.4330,-82.6670,30.64,1111122 
COMPS,ioos:station:USF.COMPS:ARP:1,2016-06-01T20:42:00Z,28.4330,-82.6670,30.36,1111122 
COMPS,ioos:station:USF.COMPS:ARP:1,2016-06-01T20:48:00Z,28.4330,-82.6670,30.16,1111122 
COMPS,ioos:station:USF.COMPS:ARP:1,2016-06-01T20:54:00Z,28.4330,-82.6670,29.92,1111122 
COMPS,ioos:station:USF.COMPS:ARP:1,2016-06-01T21:00:00Z,28.4330,-82.6670,29.74,1111122 
COMPS,ioos:station:USF.COMPS:ARP:1,2016-06-01T21:06:00Z,28.4330,-82.6670,29.82,1111122 
COMPS,ioos:station:USF.COMPS:ARP:1,2016-06-01T21:12:00Z,28.4330,-82.6670,29.76,1111122 
COMPS,ioos:station:USF.COMPS:ARP:1,2016-06-01T21:18:00Z,28.4330,-82.6670,29.66,1111122 
COMPS,ioos:station:USF.COMPS:ARP:1,2016-06-01T21:24:00Z,28.4330,-82.6670,30.08,1111122 
COMPS,ioos:station:USF.COMPS:ARP:1,2016-06-01T21:30:00Z,28.4330,-82.6670,29.82,1111122 
COMPS,ioos:station:USF.COMPS:ARP:1,2016-06-01T21:36:00Z,28.4330,-82.6670,30.02,1111122 
COMPS,ioos:station:USF.COMPS:ARP:1,2016-06-01T21:42:00Z,28.4330,-82.6670,29.75,1111122 
COMPS,ioos:station:USF.COMPS:ARP:1,2016-06-01T21:48:00Z,28.4330,-82.6670,29.88,1111122 
COMPS,ioos:station:USF.COMPS:ARP:1,2016-06-01T21:54:00Z,28.4330,-82.6670,29.98,1111122 
COMPS,ioos:station:USF.COMPS:ARP:1,2016-06-01T22:00:00Z,28.4330,-82.6670,30.14,1111122 
COMPS,ioos:station:USF.COMPS:ARP:1,2016-06-01T22:06:00Z,28.4330,-82.6670,29.7,1111122 
COMPS,ioos:station:USF.COMPS:ARP:1,2016-06-01T22:12:00Z,28.4330,-82.6670,29.63,1111122 
COMPS,ioos:station:USF.COMPS:ARP:1,2016-06-01T22:18:00Z,28.4330,-82.6670,29.66,1111122 
COMPS,ioos:station:USF.COMPS:ARP:1,2016-06-01T22:24:00Z,28.4330,-82.6670,29.73,1111122 
COMPS,ioos:station:USF.COMPS:ARP:1,2016-06-01T22:30:00Z,28.4330,-82.6670,29.68,1111122 
COMPS,ioos:station:USF.COMPS:ARP:1,2016-06-01T22:36:00Z,28.4330,-82.6670,29.99,1111122 
COMPS,ioos:station:USF.COMPS:ARP:1,2016-06-01T22:42:00Z,28.4330,-82.6670,29.83,1111122 
COMPS,ioos:station:USF.COMPS:ARP:1,2016-06-01T22:48:00Z,28.4330,-82.6670,29.6,1111122 
COMPS,ioos:station:USF.COMPS:ARP:1,2016-06-01T22:54:00Z,28.4330,-82.6670,29.7,1111122 
COMPS,ioos:station:USF.COMPS:ARP:1,2016-06-01T23:00:00Z,28.4330,-82.6670,29.45,1111122 
COMPS,ioos:station:USF.COMPS:ARP:1,2016-06-01T23:06:00Z,28.4330,-82.6670,29.33,1111122 
COMPS,ioos:station:USF.COMPS:ARP:1,2016-06-01T23:12:00Z,28.4330,-82.6670,29.35,1111122 
COMPS,ioos:station:USF.COMPS:ARP:1,2016-06-01T23:18:00Z,28.4330,-82.6670,29.27,1111122 
COMPS,ioos:station:USF.COMPS:ARP:1,2016-06-01T23:24:00Z,28.4330,-82.6670,29.39,1111122 
COMPS,ioos:station:USF.COMPS:ARP:1,2016-06-01T23:30:00Z,28.4330,-82.6670,29.51,1111122 
COMPS,ioos:station:USF.COMPS:ARP:1,2016-06-01T23:36:00Z,28.4330,-82.6670,29.23,1111122 
COMPS,ioos:station:USF.COMPS:ARP:1,2016-06-01T23:42:00Z,28.4330,-82.6670,29.2,1111122 
COMPS,ioos:station:USF.COMPS:ARP:1,2016-06-01T23:48:00Z,28.4330,-82.6670,29.11,1111122 
COMPS,ioos:station:USF.COMPS:ARP:1,2016-06-01T23:54:00Z,28.4330,-82.6670,29.08,1111122 
COMPS,ioos:station:USF.COMPS:ARP:1,2016-06-02T00:00:00Z,28.4330,-82.6670,28.9,1111122 
COMPS,ioos:station:USF.COMPS:ARP:1,2016-06-02T00:06:00Z,28.4330,-82.6670,28.8,1111122 
COMPS,ioos:station:USF.COMPS:ARP:1,2016-06-02T00:12:00Z,28.4330,-82.6670,28.78,1111122 
COMPS,ioos:station:USF.COMPS:ARP:1,2016-06-02T00:18:00Z,28.4330,-82.6670,28.69,1111122 
COMPS,ioos:station:USF.COMPS:ARP:1,2016-06-02T00:24:00Z,28.4330,-82.6670,28.64,1111122 
COMPS,ioos:station:USF.COMPS:ARP:1,2016-06-02T00:30:00Z,28.4330,-82.6670,28.65,1111122 
COMPS,ioos:station:USF.COMPS:ARP:1,2016-06-02T00:36:00Z,28.4330,-82.6670,28.65,1111122 
COMPS,ioos:station:USF.COMPS:ARP:1,2016-06-02T00:42:00Z,28.4330,-82.6670,28.64,1111122 
COMPS,ioos:station:USF.COMPS:ARP:1,2016-06-02T00:48:00Z,28.4330,-82.6670,28.64,1111122 
COMPS,ioos:station:USF.COMPS:ARP:1,2016-06-02T00:54:00Z,28.4330,-82.6670,28.79,1111122 
COMPS,ioos:station:USF.COMPS:ARP:1,2016-06-02T01:00:00Z,28.4330,-82.6670,28.75,1111122 
COMPS,ioos:station:USF.COMPS:ARP:1,2016-06-02T01:06:00Z,28.4330,-82.6670,28.8,1111122 
COMPS,ioos:station:USF.COMPS:ARP:1,2016-06-02T01:12:00Z,28.4330,-82.6670,28.82,1111122 
COMPS,ioos:station:USF.COMPS:ARP:1,2016-06-02T01:18:00Z,28.4330,-82.6670,28.64,1111122 
COMPS,ioos:station:USF.COMPS:ARP:1,2016-06-02T01:24:00Z,28.4330,-82.6670,28.37,1111122 
COMPS,ioos:station:USF.COMPS:ARP:1,2016-06-02T01:30:00Z,28.4330,-82.6670,28.18,1111122 
COMPS,ioos:station:USF.COMPS:ARP:1,2016-06-02T01:36:00Z,28.4330,-82.6670,28.14,1111122 
COMPS,ioos:station:USF.COMPS:ARP:1,2016-06-02T01:42:00Z,28.4330,-82.6670,28.25,1111122 
COMPS,ioos:station:USF.COMPS:ARP:1,2016-06-02T01:48:00Z,28.4330,-82.6670,28.35,1111122 
COMPS,ioos:station:USF.COMPS:ARP:1,2016-06-02T01:54:00Z,28.4330,-82.6670,28.18,1111122 
COMPS,ioos:station:USF.COMPS:ARP:1,2016-06-02T02:00:00Z,28.4330,-82.6670,27.61,1111122 
COMPS,ioos:station:USF.COMPS:ARP:1,2016-06-02T02:06:00Z,28.4330,-82.6670,27.55,1111122 
COMPS,ioos:station:USF.COMPS:ARP:1,2016-06-02T02:12:00Z,28.4330,-82.6670,27.31,1111122 
COMPS,ioos:station:USF.COMPS:ARP:1,2016-06-02T02:18:00Z,28.4330,-82.6670,27.12,1111122 
COMPS,ioos:station:USF.COMPS:ARP:1,2016-06-02T02:24:00Z,28.4330,-82.6670,26.89,1111122 
COMPS,ioos:station:USF.COMPS:ARP:1,2016-06-02T02:30:00Z,28.4330,-82.6670,26.69,1111122 
COMPS,ioos:station:USF.COMPS:ARP:1,2016-06-02T02:36:00Z,28.4330,-82.6670,26.64,1111122 
COMPS,ioos:station:USF.COMPS:ARP:1,2016-06-02T02:42:00Z,28.4330,-82.6670,26.51,1111122 
COMPS,ioos:station:USF.COMPS:ARP:1,2016-06-02T02:48:00Z,28.4330,-82.6670,26.46,1111122 
COMPS,ioos:station:USF.COMPS:ARP:1,2016-06-02T02:54:00Z,28.4330,-82.6670,26.68,1111122 
COMPS,ioos:station:USF.COMPS:ARP:1,2016-06-02T03:00:00Z,28.4330,-82.6670,26.64,1111122 
COMPS,ioos:station:USF.COMPS:ARP:1,2016-06-02T03:06:00Z,28.4330,-82.6670,26.54,1111122 